This demonstration page uses our WeatherBlox Daily Observations layout. Learn more.

36.17497, -115.13722

Hourly Observations for September 6, 2018

Temp ( °F °C ) Dew Point ( °F °C ) Humidity (%) Winds ( mph kmh ) Pressure ( in mb ) Visibility ( mi km ) Precip ( " mm )
12:53 am 00:53 Clear 84 28.9 46 7.8 27 27 Calm 29.97 1015 10 16.09344 0 0
1:53 am 01:53 Clear 81 27.2 48 8.9 32 32 Calm 29.97 1015 10 16.09344 0 0
2:53 am 02:53 Clear 80 26.7 48 8.9 33 33 Calm 29.97 1015 10 16.09344 0 0
3:53 am 03:53 Clear 79 26.1 50 10 36 36 N 3 6 29.97 1015 10 16.09344 0 0
4:53 am 04:53 Clear 77 25 49 9.4 37 37 NW 5 7 29.97 1015 10 16.09344 0 0
5:53 am 05:53 Clear 77 25 49 9.4 37 37 NW 3 6 30 1016 10 16.09344 0 0
6:53 am 06:53 Sunny 76 24.4 49 9.4 39 39 NNW 3 6 30.03 1017 10 16.09344 0 0
7:53 am 07:53 Sunny 80 26.7 48 8.9 33 33 NNE 5 7 30.03 1017 10 16.09344 0 0
8:53 am 08:53 Sunny 85 29.4 49 9.4 29 29 Calm 30.03 1017 10 16.09344 0 0
9:53 am 09:53 Sunny 88 31.1 48 8.9 25 25 S 3 6 30.03 1017 10 16.09344 0 0
10:53 am 10:53 Sunny 92 33.3 46 7.8 21 21 NNE 5 7 30.03 1017 10 16.09344 0 0
11:53 am 11:53 Sunny 94 34.4 46 7.8 19 19 SSE 5 7 30 1016 10 16.09344 0 0
12:53 pm 12:53 Sunny 96 35.6 46 7.8 18 18 SSE 7 11 29.97 1015 10 16.09344 0 0
1:53 pm 13:53 Sunny 98 36.7 45 7.2 16 16 S 10 17 29.97 1015 10 16.09344 0 0
2:53 pm 14:53 Sunny 98 36.7 40 4.4 13 13 Calm 29.94 1014 10 16.09344 0 0
3:53 pm 15:53 Sunny 100 37.8 41 5 13 13 E 3 6 29.91 1013 10 16.09344 0 0
4:53 pm 16:53 Sunny 100 37.8 40 4.4 13 13 N 3 6 29.91 1013 10 16.09344 0 0
5:53 pm 17:53 Sunny 98 36.7 40 4.4 13 13 ESE 3 6 29.88 1012 10 16.09344 0 0
6:53 pm 18:53 Sunny 97 36.1 40 4.4 14 14 Calm 29.88 1012 10 16.09344 0 0
7:53 pm 19:53 Clear 93 33.9 39 3.9 15 15 ESE 5 7 29.91 1013 10 16.09344 0 0
8:53 pm 20:53 Clear 93 33.9 41 5 16 16 Calm 29.91 1013 10 16.09344 0 0
9:53 pm 21:53 Clear 89 31.7 45 7.2 22 22 NW 5 7 29.94 1014 10 16.09344 0 0
10:53 pm 22:53 Clear 87 30.6 44 6.7 22 22 NW 6 9 29.94 1014 10 16.09344 0 0
11:53 pm 23:53 Clear 84 28.9 45 7.2 25 25 NNW 5 7 29.94 1014 10 16.09344 0 0

Powered by AerisWeather